| time (UTC) | temp F | wind direction | speed MPH | gust MPH | rain 1hr in | rain 24hr in | rain mn in | humidity % | barometer mb |
| 20260507021030 | 58 | 217 | 0.0 | 4.0 | 0.00 | 0.08 | 0.08 | 94 | 1001.2 |
| 20260507020527 | 58 | 238 | 0.0 | 4.0 | 0.00 | 0.08 | 0.08 | 94 | 1001.2 |
| 20260507020043 | 58 | 202 | 0.0 | 2.0 | 0.00 | 0.08 | 0.08 | 94 | 1001.2 |
| 20260507015526 | 58 | 317 | 0.0 | 3.0 | 0.00 | 0.08 | 0.08 | 94 | 1001.3 |
| 20260507015026 | 58 | 229 | 0.0 | 3.0 | 0.00 | 0.08 | 0.08 | 94 | 1001.2 |
| 20260507014526 | 58 | 235 | 0.0 | 3.0 | 0.00 | 0.08 | 0.08 | 94 | 1001.3 |
| 20260507014025 | 58 | 193 | 0.0 | 1.0 | 0.00 | 0.08 | 0.08 | 94 | 1001.3 |
| 20260507013527 | 58 | 178 | 0.0 | 4.0 | 0.00 | 0.08 | 0.08 | 94 | 1001.1 |
| 20260507013027 | 58 | 159 | 0.0 | 5.0 | 0.00 | 0.08 | 0.08 | 94 | 1001.1 |
| 20260507012529 | 58 | 184 | 0.0 | 12.0 | 0.00 | 0.08 | 0.08 | 94 | 1001.2 |
| 20260507012026 | 58 | 184 | 0.0 | 12.0 | 0.00 | 0.08 | 0.08 | 94 | 1001.1 |
| 20260507011539 | 58 | 227 | 0.0 | 6.0 | 0.00 | 0.08 | 0.08 | 94 | 1001.2 |
| 20260507011025 | 58 | 109 | 0.0 | 6.0 | 0.00 | 0.08 | 0.08 | 94 | 1001.3 |
| 20260507010525 | 58 | 220 | 0.0 | 6.0 | 0.00 | 0.08 | 0.08 | 94 | 1001.4 |
| 20260507010029 | 58 | 269 | 1.0 | 6.0 | 0.00 | 0.08 | 0.08 | 94 | 1001.4 |
| 20260507005524 | 58 | 348 | 0.0 | 4.0 | 0.00 | 0.08 | 0.08 | 94 | 1001.4 |
| 20260507005024 | 58 | 154 | 0.0 | 7.0 | 0.00 | 0.08 | 0.08 | 94 | 1001.4 |
| 20260507004524 | 58 | 243 | 0.0 | 7.0 | 0.00 | 0.08 | 0.08 | 94 | 1001.4 |
| 20260507004024 | 58 | 188 | 0.0 | 3.0 | 0.00 | 0.08 | 0.08 | 94 | 1001.4 |
| 20260507003526 | 58 | 194 | 0.0 | 5.0 | 0.00 | 0.08 | 0.08 | 94 | 1001.4 |
| 20260507003024 | 58 | 285 | 0.0 | 3.0 | 0.00 | 0.08 | 0.08 | 94 | 1001.4 |
| 20260507002524 | 58 | 121 | 0.0 | 1.0 | 0.00 | 0.08 | 0.08 | 94 | 1001.4 |
| 20260507002024 | 58 | 261 | 0.0 | 3.0 | 0.00 | 0.08 | 0.08 | 94 | 1001.4 |
| 20260507001553 | 58 | 236 | 0.0 | 3.0 | 0.00 | 0.08 | 0.08 | 94 | 1001.3 |
| 20260507001026 | 58 | 207 | 0.0 | 2.0 | 0.00 | 0.08 | 0.08 | 94 | 1001.3 |
| 20260507000523 | 58 | 213 | 0.0 | 8.0 | 0.00 | 0.08 | 0.08 | 93 | 1001.3 |
| 20260507000024 | 58 | 231 | 0.0 | 8.0 | 0.01 | 0.08 | 0.08 | 94 | 1001.1 |
| 20260506235526 | 58 | 191 | 0.0 | 1.0 | 0.01 | 0.08 | 0.08 | 94 | 1001.0 |
| 20260506235023 | 58 | 157 | 0.0 | 2.0 | 0.02 | 0.08 | 0.08 | 93 | 1000.9 |
| 20260506234522 | 58 | 154 | 0.0 | 2.0 | 0.02 | 0.08 | 0.08 | 93 | 1001.0 |
| 20260506234022 | 58 | 207 | 0.0 | 2.0 | 0.03 | 0.08 | 0.08 | 93 | 1001.0 |
| 20260506233522 | 58 | 232 | 0.0 | 3.0 | 0.03 | 0.08 | 0.08 | 93 | 1001.0 |
| 20260506233023 | 58 | 213 | 0.0 | 3.0 | 0.03 | 0.08 | 0.08 | 93 | 1001.0 |
| 20260506232522 | 58 | 170 | 0.0 | 2.0 | 0.03 | 0.08 | 0.08 | 93 | 1001.1 |
| 20260506232022 | 59 | 190 | 0.0 | 2.0 | 0.03 | 0.08 | 0.08 | 93 | 1000.9 |
| 20260506231522 | 59 | 195 | 0.0 | 1.0 | 0.03 | 0.08 | 0.08 | 93 | 1000.9 |
| 20260506231025 | 59 | 198 | 0.0 | 1.0 | 0.03 | 0.08 | 0.08 | 93 | 1000.9 |
| 20260506230524 | 59 | 82 | 0.0 | 1.0 | 0.03 | 0.08 | 0.08 | 93 | 1000.9 |
| 20260506230020 | 59 | 104 | 0.0 | 1.0 | 0.02 | 0.07 | 0.07 | 93 | 1001.0 |
| 20260506225520 | 59 | 218 | 0.0 | 5.0 | 0.02 | 0.07 | 0.07 | 93 | 1000.9 |
| 20260506225019 | 59 | 219 | 0.0 | 5.0 | 0.01 | 0.06 | 0.06 | 93 | 1001.0 |
| 20260506224519 | 59 | 195 | 0.0 | 0.0 | 0.01 | 0.06 | 0.06 | 92 | 1001.1 |
| 20260506224019 | 59 | 165 | 0.0 | 3.0 | 0.00 | 0.05 | 0.05 | 92 | 1001.1 |
| 20260506223518 | 59 | 163 | 0.0 | 3.0 | 0.00 | 0.05 | 0.05 | 92 | 1001.2 |
| 20260506223027 | 59 | 186 | 0.0 | 0.0 | 0.00 | 0.05 | 0.05 | 92 | 1001.1 |
| 20260506222520 | 59 | 209 | 0.0 | 0.0 | 0.00 | 0.05 | 0.05 | 92 | 1001.1 |
| 20260506222017 | 59 | 180 | 0.0 | 0.0 | 0.00 | 0.05 | 0.05 | 92 | 1001.2 |
| 20260506221517 | 59 | 105 | 0.0 | 0.0 | 0.00 | 0.05 | 0.05 | 92 | 1001.2 |
| 20260506221018 | 59 | 171 | 0.0 | 2.0 | 0.00 | 0.05 | 0.05 | 92 | 1001.3 |
| 20260506220516 | 59 | 163 | 0.0 | 2.0 | 0.00 | 0.05 | 0.05 | 91 | 1001.3 |
| 20260506220016 | 60 | 165 | 0.0 | 0.0 | 0.00 | 0.05 | 0.05 | 91 | 1001.4 |
| 20260506215515 | 60 | 200 | 0.0 | 7.0 | 0.00 | 0.05 | 0.05 | 91 | 1001.4 |
| 20260506215015 | 60 | 139 | 0.0 | 7.0 | 0.00 | 0.05 | 0.05 | 91 | 1001.4 |
| 20260506214515 | 60 | 199 | 0.0 | 0.0 | 0.00 | 0.05 | 0.05 | 91 | 1001.4 |
| 20260506214014 | 60 | 211 | 0.0 | 1.0 | 0.00 | 0.05 | 0.05 | 91 | 1001.5 |
| 20260506213517 | 60 | 130 | 0.0 | 4.0 | 0.00 | 0.05 | 0.05 | 91 | 1001.6 |
| 20260506213012 | 60 | 162 | 0.0 | 3.0 | 0.00 | 0.05 | 0.05 | 91 | 1001.7 |
| 20260506212512 | 60 | 199 | 0.0 | 3.0 | 0.00 | 0.05 | 0.05 | 91 | 1001.7 |
| 20260506212016 | 60 | 168 | 0.0 | 3.0 | 0.00 | 0.05 | 0.05 | 91 | 1001.7 |
| 20260506211512 | 60 | 205 | 0.0 | 0.0 | 0.01 | 0.05 | 0.05 | 91 | 1001.7 |
| 20260506211011 | 60 | 211 | 0.0 | 0.0 | 0.01 | 0.05 | 0.05 | 91 | 1001.7 |
| 20260506210517 | 60 | 263 | 0.0 | 2.0 | 0.01 | 0.05 | 0.05 | 90 | 1001.8 |
| 20260506210019 | 60 | 290 | 0.0 | 4.0 | 0.01 | 0.05 | 0.05 | 90 | 1001.9 |
| 20260506205509 | 60 | 291 | 0.0 | 4.0 | 0.01 | 0.05 | 0.05 | 90 | 1001.9 |
| 20260506205012 | 60 | 223 | 0.0 | 7.0 | 0.01 | 0.05 | 0.05 | 90 | 1001.8 |
| 20260506204509 | 60 | 172 | 0.0 | 6.0 | 0.01 | 0.05 | 0.05 | 90 | 1001.9 |
| 20260506204009 | 60 | 209 | 0.0 | 4.0 | 0.01 | 0.05 | 0.05 | 90 | 1001.9 |
| 20260506203511 | 60 | 200 | 0.0 | 1.0 | 0.01 | 0.05 | 0.05 | 90 | 1001.9 |
| 20260506203010 | 60 | 186 | 0.0 | 3.0 | 0.01 | 0.05 | 0.05 | 90 | 1002.0 |
| 20260506202508 | 60 | 180 | 0.0 | 3.0 | 0.01 | 0.05 | 0.05 | 90 | 1001.9 |
| 20260506202008 | 60 | 192 | 0.0 | 5.0 | 0.01 | 0.04 | 0.04 | 89 | 1002.1 |
| 20260506201510 | 60 | 173 | 0.0 | 5.0 | 0.01 | 0.04 | 0.04 | 89 | 1002.0 |
| 20260506201007 | 60 | 217 | 0.0 | 10.0 | 0.02 | 0.04 | 0.04 | 89 | 1002.0 |
| 20260506200507 | 60 | 129 | 0.0 | 10.0 | 0.02 | 0.04 | 0.04 | 89 | 1002.2 |
| 20260506200006 | 60 | 173 | 0.0 | 3.0 | 0.03 | 0.04 | 0.04 | 89 | 1002.1 |
| 20260506195507 | 60 | 196 | 0.0 | 3.0 | 0.03 | 0.04 | 0.04 | 88 | 1002.0 |
| 20260506195006 | 61 | 258 | 0.0 | 3.0 | 0.03 | 0.04 | 0.04 | 88 | 1002.1 |
| 20260506194507 | 61 | 235 | 0.0 | 4.0 | 0.03 | 0.04 | 0.04 | 87 | 1002.0 |
| 20260506194008 | 61 | 360 | 0.0 | 4.0 | 0.04 | 0.04 | 0.04 | 87 | 1002.0 |
| 20260506193505 | 62 | 360 | 0.0 | 3.0 | 0.04 | 0.04 | 0.04 | 87 | 1002.1 |
| 20260506193005 | 62 | 360 | 0.0 | 4.0 | 0.04 | 0.04 | 0.04 | 86 | 1002.1 |
| 20260506192504 | 62 | 360 | 0.0 | 4.0 | 0.04 | 0.04 | 0.04 | 86 | 1002.1 |
| 20260506192004 | 63 | 179 | 0.0 | 0.0 | 0.03 | 0.03 | 0.03 | 85 | 1002.2 |
| 20260506191507 | 63 | 177 | 0.0 | 4.0 | 0.02 | 0.02 | 0.02 | 84 | 1002.1 |
| 20260506191003 | 63 | 360 | 0.0 | 4.0 | 0.02 | 0.02 | 0.02 | 82 | 1002.1 |
| 20260506190502 | 64 | 360 | 0.0 | 5.0 | 0.02 | 0.02 | 0.02 | 82 | 1002.1 |
| 20260506190002 | 64 | 110 | 0.0 | 5.0 | 0.01 | 0.01 | 0.01 | 80 | 1002.2 |
| 20260506185503 | 65 | 360 | 0.0 | 0.0 | 0.01 | 0.01 | 0.01 | 79 | 1002.3 |
| 20260506185000 | 65 | 163 | 0.0 | 0.0 | 0.01 | 0.01 | 0.01 | 78 | 1002.3 |
| 20260506184503 | 66 | 360 | 0.0 | 0.0 | 0.01 | 0.01 | 0.01 | 76 | 1002.3 |
| 20260506184103 | 66 | 360 | 0.0 | 0.0 | 0.00 | 0.00 | 0.00 | 75 | 1002.3 |
| 20260506183604 | 66 | 196 | 0.0 | 6.0 | 0.00 | 0.00 | 0.00 | 73 | 1002.4 |
| 20260506183109 | 67 | 236 | 0.0 | 9.0 | 0.00 | 0.00 | 0.00 | 71 | 1002.5 |
| 20260506182559 | 67 | 228 | 1.0 | 9.0 | 0.00 | 0.00 | 0.00 | 70 | 1002.6 |
| 20260506182059 | 68 | 240 | 0.0 | 5.0 | 0.00 | 0.00 | 0.00 | 70 | 1002.6 |
| 20260506181604 | 68 | 360 | 0.0 | 7.0 | 0.00 | 0.00 | 0.00 | 68 | 1002.5 |
| 20260506181059 | 68 | 360 | 2.0 | 13.0 | 0.00 | 0.00 | 0.00 | 66 | 1002.5 |
| 20260506180600 | 69 | 360 | 4.0 | 13.0 | 0.00 | 0.00 | 0.00 | 64 | 1002.5 |
| 20260506180100 | 70 | 360 | 0.0 | 4.0 | 0.00 | 0.00 | 0.00 | 63 | 1002.5 |
| 20260506175558 | 70 | 360 | 0.0 | 1.0 | 0.00 | 0.00 | 0.00 | 60 | 1002.7 |
| 20260506175101 | 71 | 360 | 0.0 | 1.0 | 0.00 | 0.00 | 0.00 | 59 | 1002.6 |
| 20260506174558 | 71 | 360 | 0.0 | 1.0 | 0.00 | 0.00 | 0.00 | 59 | 1002.5 |
| 20260506174058 | 71 | 217 | 0.0 | 3.0 | 0.00 | 0.00 | 0.00 | 57 | 1002.5 |
| 20260506173558 | 72 | 128 | 0.0 | 6.0 | 0.00 | 0.00 | 0.00 | 58 | 1002.5 |
| 20260506173109 | 72 | 192 | 0.0 | 6.0 | 0.00 | 0.00 | 0.00 | 57 | 1002.6 |
| 20260506172557 | 73 | 360 | 0.0 | 5.0 | 0.00 | 0.00 | 0.00 | 57 | 1002.5 |
| 20260506172057 | 73 | 360 | 0.0 | 6.0 | 0.00 | 0.00 | 0.00 | 57 | 1002.5 |
| 20260506171557 | 73 | 360 | 0.0 | 6.0 | 0.00 | 0.00 | 0.00 | 57 | 1002.6 |
| 20260506171057 | 72 | 144 | 0.0 | 3.0 | 0.00 | 0.00 | 0.00 | 58 | 1002.7 |
| 20260506170557 | 72 | 360 | 0.0 | 8.0 | 0.00 | 0.00 | 0.00 | 57 | 1002.7 |
| 20260506170108 | 73 | 360 | 0.0 | 10.0 | 0.00 | 0.00 | 0.00 | 56 | 1002.6 |
| 20260506165556 | 73 | 360 | 0.0 | 10.0 | 0.00 | 0.00 | 0.00 | 56 | 1002.9 |
| 20260506165054 | 72 | 360 | 0.0 | 8.0 | 0.00 | 0.00 | 0.00 | 59 | 1002.7 |
| 20260506164613 | 71 | 215 | 0.0 | 5.0 | 0.00 | 0.00 | 0.00 | 60 | 1002.7 |
| 20260506164053 | 71 | 201 | 0.0 | 4.0 | 0.00 | 0.00 | 0.00 | 60 | 1002.8 |
| 20260506163552 | 71 | 192 | 0.0 | 8.0 | 0.00 | 0.00 | 0.00 | 60 | 1003.0 |
| 20260506163059 | 71 | 180 | 0.0 | 8.0 | 0.00 | 0.00 | 0.00 | 60 | 1003.1 |
| 20260506162552 | 71 | 117 | 0.0 | 1.0 | 0.00 | 0.00 | 0.00 | 62 | 1003.2 |
| 20260506162049 | 71 | 146 | 0.0 | 2.0 | 0.00 | 0.00 | 0.00 | 62 | 1003.2 |
| 20260506161550 | 70 | 178 | 0.0 | 8.0 | 0.00 | 0.00 | 0.00 | 62 | 1003.2 |
| 20260506161050 | 70 | 175 | 0.0 | 8.0 | 0.00 | 0.00 | 0.00 | 62 | 1003.4 |
| 20260506160549 | 70 | 236 | 0.0 | 1.0 | 0.00 | 0.00 | 0.00 | 62 | 1003.5 |
| 20260506160055 | 70 | 156 | 0.0 | 0.0 | 0.00 | 0.00 | 0.00 | 63 | 1003.6 |
| 20260506155546 | 70 | 219 | 0.0 | 2.0 | 0.00 | 0.00 | 0.00 | 63 | 1003.6 |
| 20260506155045 | 70 | 182 | 0.0 | 2.0 | 0.00 | 0.00 | 0.00 | 63 | 1003.7 |
| 20260506154547 | 70 | 152 | 0.0 | 2.0 | 0.00 | 0.00 | 0.00 | 64 | 1003.8 |
| 20260506154045 | 70 | 144 | 0.0 | 2.0 | 0.00 | 0.00 | 0.00 | 63 | 1003.9 |
| 20260506153549 | 70 | 207 | 0.0 | 1.0 | 0.00 | 0.00 | 0.00 | 62 | 1003.9 |
| 20260506153043 | 70 | 360 | 0.0 | 6.0 | 0.00 | 0.00 | 0.00 | 62 | 1003.9 |
| 20260506152543 | 70 | 360 | 0.0 | 1.0 | 0.00 | 0.00 | 0.00 | 62 | 1003.9 |
| 20260506152045 | 70 | 360 | 0.0 | 1.0 | 0.00 | 0.00 | 0.00 | 63 | 1004.2 |
| 20260506151542 | 70 | 360 | 0.0 | 1.0 | 0.00 | 0.00 | 0.00 | 62 | 1004.2 |
| 20260506151042 | 70 | 360 | 0.0 | 10.0 | 0.00 | 0.00 | 0.00 | 63 | 1004.2 |
| 20260506150544 | 70 | 360 | 0.0 | 10.0 | 0.00 | 0.00 | 0.00 | 63 | 1004.2 |
| 20260506150051 | 70 | 360 | 0.0 | 6.0 | 0.00 | 0.00 | 0.00 | 62 | 1004.1 |
| 20260506145541 | 70 | 360 | 0.0 | 0.0 | 0.00 | 0.00 | 0.00 | 63 | 1004.2 |
| 20260506145040 | 70 | 360 | 0.0 | 0.0 | 0.00 | 0.00 | 0.00 | 63 | 1004.2 |
| 20260506144540 | 70 | 360 | 0.0 | 2.0 | 0.00 | 0.00 | 0.00 | 66 | 1004.3 |
| 20260506144039 | 70 | 195 | 0.0 | 6.0 | 0.00 | 0.00 | 0.00 | 65 | 1004.4 |
| 20260506143538 | 70 | 360 | 0.0 | 6.0 | 0.00 | 0.00 | 0.00 | 66 | 1004.3 |
| 20260506143039 | 70 | 360 | 0.0 | 2.0 | 0.00 | 0.00 | 0.00 | 68 | 1004.3 |
| 20260506142535 | 69 | 240 | 0.0 | 3.0 | 0.00 | 0.00 | 0.00 | 68 | 1004.3 |
| 20260506142035 | 69 | 360 | 0.0 | 3.0 | 0.00 | 0.00 | 0.00 | 67 | 1004.3 |
| 20260506141541 | 69 | 192 | 0.0 | 0.0 | 0.00 | 0.00 | 0.00 | 69 | 1004.3 |
| 20260506141033 | 68 | 186 | 0.0 | 3.0 | 0.00 | 0.00 | 0.00 | 68 | 1004.2 |
| 20260506140535 | 68 | 191 | 0.0 | 4.0 | 0.00 | 0.00 | 0.00 | 68 | 1004.2 |
| 20260506140033 | 68 | 183 | 0.0 | 4.0 | 0.00 | 0.00 | 0.00 | 69 | 1004.2 |
| 20260506135530 | 68 | 360 | 0.0 | 4.0 | 0.00 | 0.00 | 0.00 | 71 | 1004.3 |
| 20260506135033 | 68 | 360 | 0.0 | 5.0 | 0.00 | 0.00 | 0.00 | 71 | 1004.5 |
| 20260506134528 | 67 | 172 | 0.0 | 6.0 | 0.00 | 0.00 | 0.00 | 70 | 1004.4 |
| 20260506134029 | 67 | 360 | 0.0 | 6.0 | 0.00 | 0.00 | 0.00 | 70 | 1004.3 |
| 20260506133527 | 67 | 360 | 0.0 | 1.0 | 0.00 | 0.00 | 0.00 | 72 | 1004.3 |
| 20260506133026 | 67 | 165 | 0.0 | 3.0 | 0.00 | 0.00 | 0.00 | 74 | 1004.5 |
| 20260506132528 | 66 | 360 | 0.0 | 3.0 | 0.00 | 0.00 | 0.00 | 72 | 1004.8 |
| 20260506132023 | 66 | 223 | 0.0 | 6.0 | 0.00 | 0.00 | 0.00 | 75 | 1004.8 |
| 20260506131524 | 65 | 360 | 0.0 | 6.0 | 0.00 | 0.00 | 0.00 | 76 | 1004.8 |
| 20260506131021 | 65 | 360 | 0.0 | 0.0 | 0.00 | 0.00 | 0.00 | 75 | 1005.0 |
| 20260506130522 | 64 | 117 | 0.0 | 1.0 | 0.00 | 0.00 | 0.00 | 76 | 1004.9 |
| 20260506130020 | 64 | 106 | 0.0 | 5.0 | 0.00 | 0.00 | 0.00 | 75 | 1004.9 |
| 20260506125518 | 64 | 217 | 0.0 | 5.0 | 0.00 | 0.00 | 0.00 | 76 | 1004.8 |
| 20260506125019 | 64 | 360 | 0.0 | 5.0 | 0.00 | 0.00 | 0.00 | 76 | 1004.7 |
| 20260506124517 | 64 | 360 | 1.0 | 5.0 | 0.00 | 0.00 | 0.00 | 77 | 1004.8 |
| 20260506124016 | 64 | 360 | 0.0 | 2.0 | 0.00 | 0.00 | 0.00 | 77 | 1004.8 |
| 20260506123515 | 63 | 360 | 0.0 | 2.0 | 0.00 | 0.00 | 0.00 | 78 | 1004.8 |
| 20260506123015 | 63 | 360 | 0.0 | 1.0 | 0.00 | 0.00 | 0.00 | 79 | 1004.8 |
| 20260506122513 | 63 | 220 | 0.0 | 1.0 | 0.00 | 0.00 | 0.00 | 79 | 1004.8 |
| 20260506122013 | 62 | 360 | 0.0 | 0.0 | 0.00 | 0.00 | 0.00 | 80 | 1005.0 |
| 20260506121514 | 62 | 360 | 0.0 | 1.0 | 0.00 | 0.00 | 0.00 | 81 | 1004.8 |
| 20260506121012 | 62 | 360 | 0.0 | 5.0 | 0.00 | 0.00 | 0.00 | 80 | 1004.9 |
| 20260506120512 | 62 | 114 | 0.0 | 3.0 | 0.00 | 0.00 | 0.00 | 81 | 1005.0 |
| 20260506120025 | 61 | 360 | 0.0 | 4.0 | 0.00 | 0.00 | 0.00 | 82 | 1004.8 |
| 20260506115511 | 61 | 360 | 0.0 | 4.0 | 0.00 | 0.00 | 0.00 | 83 | 1004.9 |
| 20260506115010 | 60 | 360 | 0.0 | 10.0 | 0.00 | 0.00 | 0.00 | 83 | 1004.9 |
| 20260506114508 | 60 | 360 | 0.0 | 10.0 | 0.00 | 0.00 | 0.00 | 83 | 1005.0 |
| 20260506114010 | 60 | 256 | 0.0 | 0.0 | 0.00 | 0.00 | 0.00 | 83 | 1005.1 |
| 20260506113510 | 60 | 360 | 0.0 | 8.0 | 0.00 | 0.00 | 0.00 | 83 | 1005.0 |
| 20260506113007 | 59 | 360 | 0.0 | 8.0 | 0.00 | 0.00 | 0.00 | 84 | 1005.0 |
| 20260506112506 | 59 | 239 | 0.0 | 6.0 | 0.00 | 0.00 | 0.00 | 84 | 1005.3 |
| 20260506112006 | 59 | 360 | 0.0 | 1.0 | 0.00 | 0.00 | 0.00 | 84 | 1005.5 |
| 20260506111506 | 59 | 360 | 0.0 | 2.0 | 0.00 | 0.00 | 0.00 | 85 | 1005.4 |
| 20260506111005 | 59 | 360 | 0.0 | 2.0 | 0.00 | 0.00 | 0.00 | 85 | 1005.3 |
| 20260506110504 | 59 | 360 | 0.0 | 2.0 | 0.00 | 0.00 | 0.00 | 85 | 1005.2 |
| 20260506110005 | 58 | 360 | 0.0 | 2.0 | 0.00 | 0.00 | 0.00 | 85 | 1005.1 |
| 20260506105502 | 58 | 360 | 0.0 | 0.0 | 0.00 | 0.00 | 0.00 | 85 | 1005.2 |
| 20260506105002 | 58 | 360 | 0.0 | 3.0 | 0.00 | 0.00 | 0.00 | 85 | 1005.2 |
| 20260506104501 | 58 | 90 | 0.0 | 3.0 | 0.00 | 0.00 | 0.00 | 85 | 1005.2 |
| 20260506104004 | 58 | 203 | 0.0 | 6.0 | 0.00 | 0.00 | 0.00 | 85 | 1005.2 |
| 20260506103601 | 58 | 205 | 0.0 | 6.0 | 0.00 | 0.00 | 0.00 | 85 | 1005.2 |
| 20260506103059 | 58 | 184 | 0.0 | 4.0 | 0.00 | 0.00 | 0.00 | 84 | 1005.1 |
| 20260506102558 | 58 | 234 | 0.0 | 4.0 | 0.00 | 0.00 | 0.00 | 84 | 1005.1 |
| 20260506102059 | 58 | 116 | 0.0 | 0.0 | 0.00 | 0.00 | 0.00 | 84 | 1005.2 |
| 20260506101557 | 58 | 38 | 0.0 | 0.0 | 0.00 | 0.00 | 0.00 | 84 | 1005.3 |
| 20260506101058 | 58 | 38 | 0.0 | 1.0 | 0.00 | 0.00 | 0.00 | 84 | 1005.2 |
| 20260506100601 | 58 | 225 | 0.0 | 0.0 | 0.00 | 0.00 | 0.00 | 84 | 1005.1 |
| 20260506100110 | 58 | 219 | 0.0 | 0.0 | 0.00 | 0.00 | 0.00 | 84 | 1005.0 |
| 20260506095555 | 58 | 238 | 0.0 | 3.0 | 0.00 | 0.00 | 0.00 | 84 | 1005.0 |
| 20260506095054 | 58 | 243 | 0.0 | 3.0 | 0.00 | 0.00 | 0.00 | 84 | 1005.0 |
| 20260506094601 | 58 | 144 | 0.0 | 2.0 | 0.00 | 0.00 | 0.00 | 83 | 1005.0 |
| 20260506094053 | 58 | 259 | 0.0 | 0.0 | 0.00 | 0.00 | 0.00 | 83 | 1005.0 |
| 20260506093552 | 58 | 154 | 0.0 | 1.0 | 0.00 | 0.00 | 0.00 | 83 | 1004.9 |
| 20260506093052 | 58 | 158 | 0.0 | 8.0 | 0.00 | 0.00 | 0.00 | 83 | 1004.9 |
| 20260506092552 | 58 | 199 | 0.0 | 8.0 | 0.00 | 0.00 | 0.00 | 83 | 1005.0 |
| 20260506092052 | 58 | 184 | 0.0 | 3.0 | 0.00 | 0.00 | 0.00 | 82 | 1005.0 |
| 20260506091552 | 58 | 208 | 0.0 | 3.0 | 0.00 | 0.00 | 0.00 | 82 | 1005.1 |
| 20260506091051 | 58 | 208 | 0.0 | 3.0 | 0.00 | 0.00 | 0.00 | 82 | 1005.1 |
| 20260506090550 | 58 | 137 | 0.0 | 3.0 | 0.00 | 0.00 | 0.00 | 81 | 1005.0 |
| 20260506090050 | 58 | 154 | 0.0 | 1.0 | 0.00 | 0.00 | 0.00 | 81 | 1005.0 |
| 20260506085549 | 59 | 287 | 0.0 | 1.0 | 0.00 | 0.00 | 0.00 | 81 | 1004.9 |
| 20260506085049 | 59 | 291 | 0.0 | 1.0 | 0.00 | 0.00 | 0.00 | 81 | 1005.0 |
| 20260506084616 | 59 | 138 | 0.0 | 1.0 | 0.00 | 0.00 | 0.00 | 81 | 1005.2 |
| 20260506084048 | 59 | 205 | 0.0 | 0.0 | 0.00 | 0.00 | 0.00 | 80 | 1005.2 |
| 20260506083546 | 59 | 242 | 0.0 | 1.0 | 0.00 | 0.00 | 0.00 | 80 | 1005.2 |
| 20260506083047 | 59 | 148 | 0.0 | 1.0 | 0.00 | 0.00 | 0.00 | 80 | 1005.1 |
| 20260506082548 | 59 | 227 | 0.0 | 2.0 | 0.00 | 0.00 | 0.00 | 80 | 1005.1 |
| 20260506082046 | 59 | 229 | 0.0 | 2.0 | 0.00 | 0.00 | 0.00 | 79 | 1005.1 |
| 20260506081554 | 59 | 286 | 0.0 | 2.0 | 0.00 | 0.00 | 0.00 | 79 | 1005.1 |
| 20260506081045 | 59 | 195 | 0.0 | 2.0 | 0.00 | 0.00 | 0.00 | 79 | 1005.0 |
| 20260506080545 | 60 | 187 | 0.0 | 1.0 | 0.00 | 0.00 | 0.00 | 78 | 1005.1 |
| 20260506073043 | 60 | 180 | 0.0 | 0.0 | 0.00 | 0.00 | 0.00 | 77 | 1005.1 |
| 20260506072541 | 61 | 188 | 0.0 | 0.0 | 0.00 | 0.00 | 0.00 | 76 | 1005.0 |
| 20260506072040 | 61 | 248 | 0.0 | 3.0 | 0.00 | 0.00 | 0.00 | 76 | 1004.9 |
| 20260506071540 | 61 | 205 | 0.0 | 3.0 | 0.00 | 0.00 | 0.00 | 76 | 1004.8 |
| 20260506071039 | 61 | 262 | 0.0 | 8.0 | 0.00 | 0.00 | 0.00 | 76 | 1004.8 |
| 20260506070538 | 61 | 107 | 0.0 | 8.0 | 0.00 | 0.00 | 0.00 | 75 | 1004.7 |
| 20260506062036 | 62 | 229 | 0.0 | 4.0 | 0.00 | 0.00 | 0.00 | 72 | 1004.5 |
| 20260506061534 | 62 | 215 | 0.0 | 5.0 | 0.00 | 0.00 | 0.00 | 72 | 1004.5 |
| 20260506061034 | 62 | 360 | 0.0 | 5.0 | 0.00 | 0.00 | 0.00 | 72 | 1004.5 |
| 20260506060533 | 62 | 178 | 0.0 | 5.0 | 0.00 | 0.00 | 0.00 | 71 | 1004.5 |
| 20260506051030 | 63 | 360 | 0.0 | 3.0 | 0.00 | 0.00 | 0.00 | 68 | 1004.8 |
| 20260506050530 | 63 | 360 | 0.0 | 8.0 | 0.00 | 0.00 | 0.00 | 68 | 1004.8 |
| 20260506045028 | 62 | 360 | 0.0 | 3.0 | 0.00 | 0.00 | 0.00 | 68 | 1004.9 |
| 20260506044536 | 62 | 360 | 0.0 | 0.0 | 0.00 | 0.00 | 0.00 | 68 | 1005.0 |
| 20260506044028 | 62 | 227 | 0.0 | 4.0 | 0.00 | 0.00 | 0.00 | 68 | 1005.0 |
| 20260506043531 | 62 | 360 | 0.0 | 4.0 | 0.00 | 0.00 | 0.00 | 68 | 1005.0 |
| 20260506043026 | 62 | 360 | 0.0 | 1.0 | 0.00 | 0.00 | 0.00 | 69 | 1005.2 |
| 20260506042526 | 62 | 360 | 0.0 | 2.0 | 0.00 | 0.00 | 0.00 | 69 | 1005.0 |
| 20260506042027 | 62 | 360 | 0.0 | 2.0 | 0.00 | 0.00 | 0.00 | 69 | 1005.1 |
| 20260506041528 | 62 | 360 | 0.0 | 1.0 | 0.00 | 0.00 | 0.00 | 69 | 1005.1 |
| 20260506041024 | 62 | 360 | 0.0 | 0.0 | 0.00 | 0.00 | 0.00 | 69 | 1005.1 |
| 20260506040526 | 62 | 360 | 0.0 | 0.0 | 0.00 | 0.00 | 0.00 | 69 | 1005.1 |
| 20260506040032 | 62 | 360 | 0.0 | 4.0 | 0.00 | 0.00 | 0.00 | 69 | 1005.1 |
| 20260506035523 | 62 | 99 | 0.0 | 0.0 | 0.00 | 0.00 | 0.00 | 69 | 1005.1 |
| 20260506035023 | 62 | 360 | 0.0 | 0.0 | 0.00 | 0.00 | 0.00 | 68 | 1005.1 |
| 20260506034523 | 62 | 360 | 0.0 | 1.0 | 0.00 | 0.00 | 0.00 | 69 | 1005.1 |
| 20260506034023 | 62 | 360 | 0.0 | 1.0 | 0.00 | 0.00 | 0.00 | 68 | 1005.1 |
| 20260506033522 | 62 | 360 | 0.0 | 0.0 | 0.00 | 0.00 | 0.00 | 68 | 1005.0 |
| 20260506033022 | 62 | 360 | 0.0 | 0.0 | 0.00 | 0.00 | 0.00 | 68 | 1005.0 |
| 20260506032522 | 62 | 360 | 0.0 | 0.0 | 0.00 | 0.00 | 0.00 | 68 | 1005.1 |
| 20260506032022 | 62 | 360 | 0.0 | 1.0 | 0.00 | 0.00 | 0.00 | 68 | 1005.0 |
| 20260506031521 | 62 | 360 | 0.0 | 1.0 | 0.00 | 0.00 | 0.00 | 67 | 1004.9 |
| 20260506031025 | 62 | 360 | 0.0 | 4.0 | 0.00 | 0.00 | 0.00 | 67 | 1005.0 |
| 20260506030521 | 62 | 360 | 0.0 | 5.0 | 0.00 | 0.00 | 0.00 | 67 | 1004.9 |
| 20260506030020 | 62 | 360 | 0.0 | 5.0 | 0.00 | 0.00 | 0.00 | 66 | 1005.0 |
| 20260506025519 | 62 | 360 | 0.0 | 9.0 | 0.00 | 0.00 | 0.00 | 66 | 1004.9 |
| 20260506025018 | 62 | 360 | 0.0 | 9.0 | 0.00 | 0.00 | 0.00 | 66 | 1004.9 |
| 20260506024518 | 62 | 360 | 0.0 | 9.0 | 0.00 | 0.00 | 0.00 | 65 | 1005.0 |
| 20260506024017 | 63 | 232 | 0.0 | 3.0 | 0.00 | 0.00 | 0.00 | 65 | 1005.0 |
| 20260506023517 | 63 | 232 | 0.0 | 10.0 | 0.00 | 0.00 | 0.00 | 65 | 1005.0 |
| 20260506023031 | 63 | 360 | 1.0 | 10.0 | 0.00 | 0.00 | 0.00 | 65 | 1005.0 |
| 20260506022516 | 63 | 245 | 0.0 | 9.0 | 0.00 | 0.00 | 0.00 | 64 | 1005.0 |
| 20260506022021 | 63 | 222 | 0.0 | 5.0 | 0.00 | 0.00 | 0.00 | 64 | 1005.0 |
| 20260506021530 | 63 | 360 | 0.0 | 2.0 | 0.00 | 0.00 | 0.00 | 64 | 1005.0 |